This is the latest recevied weather packets stored in our database for station/object KF7PIZ. If no packets are shown the sender has not sent any weather packets the latest 10 day(s).
| Time | Temp. | Humidity | Pressure | Rain* | Wind** | Luminosity | Snow |
|---|---|---|---|---|---|---|---|
| 1777416878 | 18.89° C | 26% | 1018.6 hPa | 0 mm | - | 155 W/m² | - |
| 1777416574 | 18.89° C | 29% | 1018.3 hPa | 0 mm | - | 151 W/m² | - |
| 1777416271 | 18.89° C | 30% | 1018.5 hPa | 0 mm | - | 289 W/m² | - |
| 1777415970 | 18.33° C | 30% | 1018.6 hPa | 0 mm | - | 165 W/m² | - |
| 1777415666 | 18.33° C | 28% | 1018.7 hPa | 0 mm | - | 252 W/m² | - |
| 1777415362 | 18.89° C | 25% | 1018.7 hPa | 0 mm | - | 162 W/m² | - |
| 1777415056 | 20° C | 27% | 1018.7 hPa | 0 mm | - | 151 W/m² | - |
| 1777414756 | 20.56° C | 27% | 1018.9 hPa | 0 mm | - | 179 W/m² | - |
| 1777414452 | 20° C | 26% | 1019 hPa | 0 mm | - | 152 W/m² | - |
| 1777414151 | 21.67° C | 25% | 1019.1 hPa | 0 mm | - | 283 W/m² | - |
| 1777413848 | 21.11° C | 27% | 1019.1 hPa | 0 mm | - | 131 W/m² | - |
| 1777413542 | 21.11° C | 29% | 1019 hPa | 0 mm | - | 210 W/m² | - |
| 1777413239 | 21.11° C | 28% | 1019.3 hPa | 0 mm | - | 210 W/m² | - |
| 1777412934 | 20° C | 30% | 1019.5 hPa | 0 mm | - | 556 W/m² | - |
| 1777412634 | 20° C | 30% | 1019.5 hPa | 0 mm | - | 416 W/m² | - |
| 1777412330 | 18.89° C | 27% | 1019.5 hPa | 0 mm | - | 797 W/m² | - |
| 1777412026 | 17.22° C | 31% | 1019.5 hPa | 0 mm | - | 567 W/m² | - |
| 1777411725 | 16.67° C | 33% | 1019.8 hPa | 0 mm | - | 248 W/m² | - |
| 1777411420 | 16.67° C | 31% | 1019.8 hPa | 0 mm | - | 184 W/m² | - |
| 1777411121 | 16.67° C | 33% | 1019.7 hPa | 0 mm | - | 170 W/m² | - |
| 1777410820 | 16.11° C | 34% | 1019.8 hPa | 0 mm | - | 160 W/m² | - |
| 1777410520 | 16.67° C | 33% | 1019.5 hPa | 0 mm | - | 143 W/m² | - |
| 1777410219 | 17.22° C | 32% | 1019.7 hPa | 0 mm | - | 144 W/m² | - |
| 1777409914 | 17.22° C | 32% | 1019.8 hPa | 0 mm | - | 143 W/m² | - |
| 1777409610 | 17.22° C | 29% | 1019.5 hPa | 0 mm | - | 130 W/m² | - |
* Rain latest hour (hover to see other rain measurements)
** Current wind speed in m/s (hover to see current wind gust speed)